Regional Weather Roundup
Issued by NWS

Home | Current Version | Previous Version | Graphics & Text | Print | Product List | Glossary On
Versions: 1 2 3 4 5 6 7 8 9 10 11 12 13 14 15 16 17 18 19 20 21 22 23 24 25 26 27 28 29 30 31 32 33 34 35 36 37 38 39 40 41 42 43 44 45 46 47 48 49 50
000
ASUS45 KBOU 301807
RWRCO

WEATHER ROUNDUP FOR COLORADO
NATIONAL WEATHER SERVICE DENVER/BOULDER CO
1200 PM MDT MON MAR 30 2015

NOTE: "FAIR" INDICATES FEW OR NO CLOUDS BELOW 12000 FEET WITH NO
SIGNIFICANT WEATHER AND/OR OBSTRUCTIONS TO VISIBILITY.

COZ001>005-013-030-031-301900-
...NORTHWEST COLORADO...

CITY           SKY/WX    TMP DP  RH WIND       PRES   REMARKS
CRAIG          SUNNY     59  21  23 W6        30.28F
HAYDEN         SUNNY     55  16  21 W8        30.28F
MEEKER         SUNNY     61  16  17 CALM      30.27F
MOUNT WERNER   NOT AVBL
STEAMBOAT SPGS SUNNY     53  18  24 S3        30.29F
WALDEN         SUNNY     54   9  16 W13G20    30.30S
$$

COZ006>008-011-301900-
...WEST CENTRAL VALLEYS...

CITY           SKY/WX    TMP DP  RH WIND       PRES   REMARKS
GRAND JUNCTION SUNNY     65  15  14 CALM      30.21F
MONTROSE       SUNNY     67  10  11 NW3       30.26F
EAGLE          SUNNY     55  14  19 CALM      30.29F
RIFLE          SUNNY     62  18  18 N3        30.24F
DELTA          SUNNY     66  15  14 CALM      30.23F
NUCLA          SUNNY     64  14  14 CALM      30.29F
$$

COZ017>023-064>068-301900-
...SOUTHWEST COLORADO...

CITY           SKY/WX    TMP DP  RH WIND       PRES   REMARKS
DURANGO        SUNNY     63  23  21 E5        30.28F
CORTEZ         SUNNY     69  15  12 NW5       30.26F
PAGOSA SPRINGS SUNNY     60  16  18 S9        30.33F
TELLURIDE      PTSUNNY   56  10  15 NW6G16    30.41S
WOLF CREEK PAS SUNNY     37  10  32 CALM      30.53F
$$

COZ009-010-012-014-032>034-037-058>063-301900-
...CENTRAL COLORADO...

CITY           SKY/WX    TMP DP  RH WIND       PRES   REMARKS
ASPEN          SUNNY     58  11  15 VRB7G17   30.31F
BUENA VISTA    SUNNY     58   2  10 CALM      30.29F
COPPER MTN     MOSUNNY   39   0  19 W22G32    30.46S
BERTHOUD PASS  FAIR      32  27  80 W36G44    30.44F WCI  16
COTTONWOOD PAS SUNNY     54 -15   5 W10G18    30.38S
GUNNISON       SUNNY     52  18  25 SW3       30.36F
KREMMLING      SUNNY     54  14  20 CALM      30.31F
LEADVILLE      SUNNY     44   9  23 NW12      30.37F
SALIDA         SUNNY     60  15  17 CALM      30.35F
SUNLIGHT       SUNNY     46   9  21 CALM      30.48S
WILKERSON PASS PTSUNNY   46   5  18 W3        30.46F
$$

COZ069>075-301900-
...SAN LUIS VALLEY/SANGRE DE CRISTO MOUNTAINS...

CITY           SKY/WX    TMP DP  RH WIND       PRES   REMARKS
ALAMOSA        MOSUNNY   61  14  16 N6        30.30F
LA VETA PASS   PTSUNNY   52  19  28 CALM      30.42F
SAGUACHE       NOT AVBL
$$

COZ035-036-038>040-301900-
...NORTHERN COLORADO FRONT RANGE...

CITY           SKY/WX    TMP DP  RH WIND       PRES   REMARKS
DENVER INTL AP MOSUNNY   68  19  15 SE10      30.16F
DMNS CITY PARK   N/A     70  19  14 SW10      30.14F
AURORA         NOT AVBL
FRONT RANGE AP MOSUNNY   68  28  22 E13       30.19R
ERIE MUNI ARPT MOSUNNY   69  18  14 SE7       30.14F
BOULDER MUN AP MOSUNNY   68  25  19 E8        30.14F
CENTENNIAL     MOSUNNY   67  17  14 VRB5      30.17F
BROOMFIELD     MOSUNNY   68  21  17 S9        30.16F
FORT COLLINS   SUNNY     66  28  24 SE12      30.16F
LONGMONT       SUNNY     71  27  19 E8        30.16F
$$

COZ041-046-047-076>085-087-088-301900-
...PIKES PEAK/PALMER DIVIDE AND SOUTHERN FOOTHILLS...

CITY           SKY/WX    TMP DP  RH WIND       PRES   REMARKS
COLO. SPRINGS  PTSUNNY   70   8   9 VRB6      30.19F
A. F. ACADEMY  NOT AVBL
ELLICOTT       PTSUNNY  N/A N/A N/A CALM      30.18F
FALCON         PTSUNNY   68  11  11 CALM      30.23F
FORT CARSON    NOT AVBL
LIMON          SUNNY     68  17  14 N6        30.16F
MONUMENT HILL  MOSUNNY   61  12  15 NW10      30.23F
TRINIDAD       CLOUDY    68  25  19 W16       30.19F
$$

COZ042>045-048>051-090-091-301900-
...NORTHEAST COLORADO...

CITY           SKY/WX    TMP DP  RH WIND       PRES   REMARKS
GREELEY ARPT   SUNNY     70  23  17 S6        30.14F
AKRON          SUNNY     69  16  13 NW15G25   30.13F
BURLINGTON     SUNNY     74  18  12 NW24G31   30.10F
WRAY           SUNNY     74  17  11 NW14G21   30.09F
STERLING       SUNNY     70  21  16 NW15G22   30.11S
HOLYOKE        NOT AVBL
FORT MORGAN    SUNNY    N/A N/A N/A NW20G25   30.15S
$$

COZ086-089-092>099-301900-
...SOUTHEAST COLORADO...

CITY           SKY/WX    TMP DP  RH WIND       PRES   REMARKS
PUEBLO         CLOUDY    73  14  10 W13G20    30.12F
LA JUNTA       MOSUNNY   74  21  13 VRB7      30.11F
LAMAR          MOSUNNY   69  29  22 W7        30.09F
SPRINGFIELD      N/A     73  26  17 W10G17    30.11F
$$



USA.gov is the U.S. government's official web portal to all federal, state and local government web resources and services.